FW4074 Weather Reports


time (UTC)temp
C
wind
direction
speed
KPH
gust
KPH
rain 1hr
cm
rain 24hr
cm
rain mn
cm
humidity
%
barometer
mb
20260504081558 21 146 16.1 22.5 0.00 0.00 0.00 70 1016.6
20260504044536 21 136 11.3 20.9 0.00 0.00 0.00 64 1019.3
20260504043040 21 140 11.3 22.5 0.00 0.00 0.00 64 1019.6
20260504041532 21 158 11.3 20.9 0.00 0.00 0.00 64 1019.6
20260504040030 21 107 11.3 19.3 0.00 0.00 0.00 64 1019.5
20260504034529 21 130 11.3 19.3 0.00 0.00 0.00 63 1019.4
20260504033029 21 129 8.0 19.3 0.00 0.00 0.00 63 1019.3
20260504031529 21 137 11.3 20.9 0.00 0.00 0.00 63 1019.4
20260504030028 21 136 6.4 19.3 0.00 0.00 0.00 64 1019.0
20260504024528 21 113 11.3 20.9 0.00 0.00 0.00 62 1018.9
20260504023027 21 144 4.8 16.1 0.00 0.00 0.00 64 1019.0
20260504021532 21 150 11.3 17.7 0.00 0.00 0.00 64 1019.1
20260504020035 21 84 11.3 17.7 0.00 0.00 0.00 62 1018.9
20260504014534 21 109 9.7 20.9 0.00 0.00 0.00 63 1018.9
20260504013026 21 116 12.9 19.3 0.00 0.00 0.00 62 1018.8
20260504011525 21 142 9.7 17.7 0.00 0.00 0.00 63 1019.0
20260504010024 21 127 6.4 16.1 0.00 0.00 0.00 64 1019.0
20260504004524 22 143 11.3 19.3 0.00 0.00 0.00 61 1019.1
20260504003023 22 146 11.3 22.5 0.00 0.00 0.00 61 1019.1
20260504001523 22 114 11.3 24.1 0.00 0.00 0.00 60 1019.0
20260504000021 22 80 12.9 20.9 0.00 0.00 0.00 60 1019.2
20260503234522 22 143 11.3 22.5 0.00 0.00 0.00 61 1019.2
20260503233018 23 140 14.5 22.5 0.00 0.00 0.00 58 1019.2
20260503231521 23 129 16.1 27.4 0.00 0.00 0.00 60 1019.3
20260503230017 23 140 11.3 20.9 0.00 0.00 0.00 57 1019.6
20260503224514 23 136 9.7 22.5 0.00 0.00 0.00 57 1019.5
20260503223013 23 121 11.3 22.5 0.00 0.00 0.00 57 1019.7
20260503221511 23 152 11.3 25.7 0.00 0.00 0.00 57 1019.8
20260503220009 23 143 14.5 22.5 0.00 0.00 0.00 55 1020.0
20260503214525 23 142 12.9 22.5 0.00 0.00 0.00 55 1020.1
20260503213007 23 130 11.3 22.5 0.00 0.00 0.00 58 1020.5
20260503211505 23 149 12.9 25.7 0.00 0.00 0.00 56 1020.7
20260503210003 23 138 14.5 27.4 0.00 0.00 0.00 56 1020.8
20260503204600 23 143 19.3 32.2 0.00 0.00 0.00 57 1021.0
20260503203058 23 153 12.9 22.5 0.00 0.00 0.00 57 1021.2
20260503201557 23 148 16.1 24.1 0.00 0.00 0.00 57 1021.4
20260503200108 23 146 12.9 25.7 0.00 0.00 0.00 58 1021.7
20260503194603 23 109 11.3 20.9 0.00 0.00 0.00 59 1021.7
20260503193102 23 117 14.5 24.1 0.00 0.00 0.00 59 1021.9
20260503191604 23 76 12.9 22.5 0.00 0.00 0.00 56 1022.1
20260503190053 24 128 11.3 22.5 0.00 0.00 0.00 53 1022.4
20260503184601 24 136 11.3 19.3 0.00 0.00 0.00 54 1022.5
20260503183052 23 130 11.3 19.3 0.00 0.00 0.00 53 1022.5
20260503181609 23 99 11.3 19.3 0.00 0.00 0.00 54 1022.9
20260503180110 23 131 12.9 19.3 0.00 0.00 0.00 52 1022.9
20260503174556 24 124 9.7 17.7 0.00 0.00 0.00 52 1023.2
20260503173058 23 90 8.0 17.7 0.00 0.00 0.00 54 1023.3
20260503171548 23 128 8.0 19.3 0.00 0.00 0.00 54 1023.4